Regional Weather Roundup
Issued by NWS

Home | Current Version | Previous Version | Text Only | Print | Product List | Glossary Off
Versions: 1 2 3 4 5 6 7 8 9 10 11 12 13 14 15 16 17 18 19 20 21 22 23 24 25 26 27

000
ASUS45 KSLC 152310
RWRUT

UTAH REGIONAL WEATHER ROUNDUP
NATIONAL WEATHER SERVICE SALT LAKE CITY UT
500 PM MDT TUE APR 15 2014

UTZ001>011-023>025-160000-

NORTHERN UTAH

CITY           SKY/WX    TMP DP  RH WIND       PRES   REMARKS
HILL AFB       CLOUDY    63   6  10 W9        29.80F
LOGAN          PTSUNNY   58  25  28 NW22G29   29.82R
OGDEN          CLOUDY    64  14  14 W9        29.79F
PROVO AIRPORT  PTSUNNY   68  21  17 SW5       29.81F
SALT LAKE CITY CLOUDY    68  12  11 W7        29.79F
VERNAL         MOSUNNY   60  19  20 CALM      29.79F
WENDOVER       CLOUDY    72  18  13 W21G31    29.82F
HEBER CITY     MOSUNNY   63  14  15 SW14G21   29.82F
WEST JORDAN    SUNNY     66  27  22 N7        29.79F

$$

UTZ012>022-026-027-160000-

SOUTHERN UTAH

CITY           SKY/WX    TMP DP  RH WIND       PRES   REMARKS
BRYCE CANYON   MOSUNNY   60  16  18 NW16G25   29.98F
CEDAR CITY     MOSUNNY   69   8   9 SW8G21    29.90F
MILFORD        SUNNY     72  10   9 S6        29.84F
MOAB/CYNLANDS  SUNNY     64  12  13 CALM      29.85F
PRICE          SUNNY     59  11  15 S9        29.88F
ST GEORGE      PTCLDY    79  18  10 W12       29.84F
KANAB            N/A     72   3   7 SW9       29.93F

$$

REGIONAL REPORTS     COLORADO/ARIZONA

CITY           SKY/WX    TMP DP  RH WIND       PRES   REMARKS
CRAIG, CO      MOSUNNY   57  19  22 SW23G30   29.83F
GRAND JUNCTION PTSUNNY   58  22  24 NW9       29.88F
RIFLE          MOSUNNY   61  16  17 W22G31    29.87F
MONTROSE       CLOUDY    62  10  13 SW10G21   29.91F
CORTEZ         SUNNY     60   4  10 NW12      29.97F
PAGE, AZ       MOSUNNY   72   9   8 NE7       29.86F
GRAND CANYON   MOSUNNY   66  -2   6 SW16      29.99F
KINGMAN        PTSUNNY   74  -9   3 SW16      29.89F
FLAGSTAFF      PTSUNNY   61  -4   7 W12G22    30.04F

$$

REGIONAL REPORTS    NEVADA/IDAHO/WYOMING

CITY           SKY/WX    TMP DP  RH WIND       PRES   REMARKS
LAS VEGAS, NV  PTSUNNY   80   9   6 CALM      29.78F
ELY            MOSUNNY   66   9  10 W16G29    29.92F
ELKO           PTSUNNY   65  20  17 W24G31    29.91F
POCATELLO, ID  MOSUNNY   58  21  24 W44G51    29.79F
BURLEY         LGT RAIN  55  25  31 W30G47    29.85F
EVANSTON, WY   PTSUNNY   54  14  20 W30G40    29.84F
ROCK SPRINGS   CLOUDY    56  11  16 W29G46    29.77F

$$



USA.gov is the U.S. government's official web portal to all federal, state and local government web resources and services.